Weather History for KSTP - January, 2013

Change the Weather History Date:

Wednesday, January 23, 2013

  Actual Average Record
Temperature  
Mean Temperature 8 °F -  
Max Temperature 18 °F 21 °F 39 °F (2006)
Min Temperature -4 °F 7 °F -16 °F (2014)
Degree Days  
Heating Degree Days 57    
Moisture  
Dew Point -2 °F    
Average Humidity 64    
Maximum Humidity 85    
Minimum Humidity 43    
Precipitation  
Precipitation 0.00 in - - ()
Sea Level Pressure  
Sea Level Pressure 30.32 in    
Wind  
Wind Speed 6 mph (NW)    
Max Wind Speed 26 mph    
Max Gust Speed 36 mph    
Visibility 8 miles    
Events Snow    
Averages and records for this station are not official NWS values.
T = Trace of Precipitation, MM = Missing Value Source: NWS Daily Summary

Daily Weather History Graph

Daily Weather History Graph

Search for Another Location

Airport or City:

Trip Planner

Search our weather history database for the weather conditions in past years. The results will help you decide how hot, cold, wet, or windy it might be!

Date:

Astronomy

Jan. 23, 2013 Rise Set
Actual Time 7:40 AM CST 5:08 PM CST
Civil Twilight 7:08 AM CST 5:40 PM CST
Nautical Twilight 6:33 AM CST 6:15 PM CST
Astronomical Twilight 5:58 AM CST 6:50 PM CST
Moon 2:16 PM CST (1/23) 4:54 AM CST (1/23)
Length of Visible Light 10h 31m
Length of Day
9h 27m
Waxing Gibbous, 89% of the Moon is Illuminated
Jan 23
Waxing Gibbous
Jan 26
Full
Feb 3
Last Quarter
Feb 10
New
Feb 17
First Quarter

Hourly Weather History & Observations

Time (CST) Temp. Windchill Dew Point Humidity Pressure Visibility Wind Dir Wind Speed Gust Speed Precip Events Conditions
12:53 AM 6.1 °F - -4.0 °F 63% 30.30 in 10.0 mi Calm Calm - N/A   Overcast
1:53 AM 7.0 °F - -4.0 °F 61% 30.28 in 10.0 mi Calm Calm - N/A   Overcast
2:53 AM 7.0 °F - -2.0 °F 67% 30.27 in 10.0 mi Calm Calm - N/A   Overcast
3:53 AM 7.0 °F -1.7 °F -0.9 °F 70% 30.25 in 5.0 mi South 4.6 mph - N/A   Haze
4:53 AM 8.1 °F 1.4 °F 1.0 °F 73% 30.23 in 3.0 mi SSE 3.5 mph - 0.00 in Snow Light Snow
5:02 AM 8.6 °F 2.0 °F 1.4 °F 73% 30.17 in 2.5 mi SSE 3.5 mph - 0.00 in Snow Light Snow
5:35 AM 8.6 °F 2.0 °F 3.2 °F 79% 30.17 in 3.0 mi SSE 3.5 mph - 0.00 in Snow Light Snow
5:53 AM 8.1 °F - 3.0 °F 80% 30.22 in 5.0 mi Calm Calm - 0.00 in   Haze
6:53 AM 9.0 °F - 3.9 °F 80% 30.22 in 3.0 mi Calm Calm - 0.00 in Snow Light Snow
7:34 AM 8.6 °F - 5.0 °F 85% 30.17 in 3.0 mi Calm Calm - 0.00 in Snow Light Snow
7:53 AM 9.0 °F - 5.0 °F 84% 30.22 in 3.0 mi Calm Calm - 0.00 in Snow Light Snow
8:02 AM 8.6 °F - 5.0 °F 85% 30.17 in 3.0 mi Calm Calm - 0.00 in   Overcast
8:53 AM 10.9 °F 0.2 °F 6.1 °F 81% 30.22 in 3.0 mi West 6.9 mph - 0.00 in   Haze
9:53 AM 12.9 °F 2.6 °F 7.0 °F 77% 30.22 in 8.0 mi WNW 6.9 mph - N/A   Overcast
10:53 AM 16.0 °F 2.3 °F 8.1 °F 71% 30.23 in 8.0 mi WNW 12.7 mph - N/A   Mostly Cloudy
11:53 AM 16.0 °F 1.1 °F 6.1 °F 65% 30.22 in 10.0 mi NW 15.0 mph 20.7 mph N/A   Overcast
12:35 PM 15.8 °F -0.6 °F 3.2 °F 58% 30.18 in 10.0 mi WNW 18.4 mph - N/A   Scattered Clouds
12:53 PM 18.0 °F 1.3 °F 5.0 °F 57% 30.22 in 10.0 mi West 20.7 mph 28.8 mph N/A   Mostly Cloudy
1:53 PM 16.0 °F -2.1 °F 1.9 °F 54% 30.23 in 10.0 mi NW 23.0 mph 29.9 mph 0.00 in   Mostly Cloudy
2:53 PM 12.0 °F -8.5 °F -5.1 °F 46% 30.29 in 10.0 mi NW 26.5 mph 35.7 mph N/A   Clear
3:53 PM 10.0 °F -8.6 °F -4.0 °F 53% 30.35 in 9.0 mi NW 19.6 mph 33.4 mph N/A   Mostly Cloudy
4:53 PM 7.0 °F -14.0 °F -9.9 °F 46% 30.40 in 10.0 mi NW 23.0 mph 28.8 mph N/A   Clear
5:53 PM 3.9 °F -16.6 °F -14.1 °F 43% 30.47 in 10.0 mi NNW 19.6 mph 28.8 mph N/A   Clear
6:53 PM 1.9 °F -16.2 °F -13.0 °F 50% 30.52 in 10.0 mi NNW 13.8 mph 24.2 mph N/A   Clear
7:53 PM 1.0 °F -16.6 °F -14.1 °F 49% 30.56 in 10.0 mi NNW 12.7 mph - N/A   Clear
8:53 PM -0.0 °F -19.4 °F -15.0 °F 49% 30.59 in 10.0 mi North 15.0 mph 23.0 mph N/A   Clear
9:53 PM -2.0 °F -18.7 °F -16.1 °F 51% 30.62 in 10.0 mi North 10.4 mph - N/A   Clear
10:53 PM -2.9 °F -19.8 °F -17.0 °F 51% 30.65 in 10.0 mi North 10.4 mph - N/A   Clear
11:53 PM -4.0 °F -20.2 °F -17.0 °F 54% 30.68 in 10.0 mi North 9.2 mph - N/A   Clear